Location: *
(28.3744°N, 81.5492°W)
Time: 02:42:03
(UTC+00:00)

BREEZE-M DEB (TANK) - Pass Details

Date: 15 June 2025
Orbit: 330 x 11706 km, 49.7° (Epoch: 11 July)

Event Time Altitude Azimuth Distance (km) Brightness Sun altitude
Rises 09:32:49 0° 313° (NW) 8,613 8.0 -11.4°
Reaches altitude 10° 09:40:52 10° 311° (NW) 5,757 7.1 -9.9°
Maximum altitude 09:52:57 53° 238° (WSW) 1,232 3.5 -7.7°
Drops below altitude 10° 09:56:52 10° 160° (SSE) 1,940 4.8 -6.9°
Sets 09:58:19 0° 154° (SSE) 2,556 5.5 -6.7°
